JST786 YSSY-YBSU

Flight info

Callsign JST786
Flight time 1h 16m
Altitude 37000
Route KEVIN7/16L OLSEM Y193 BANDA H252 GOMOL/N0430F360 Q69 SU
Aircraft A320/M-SDE3FGHIRWY/LB1

Departure

Time 2026-04-22 03:54
Airport Sydney Kingsford Smith International Airport (YSSY)

Arrival

Time 2026-04-22 05:10
Airport Sunshine Coast Airport (YBSU)
Time Latitude Longitude Altitude Speed Heading
2026-04-22 03:24 -33.93563 151.17759 30 ft 0 kts 281°
2026-04-22 03:44 -33.93564 151.17764 30 ft 3 kts 281°
2026-04-22 03:44 -33.93570 151.17796 30 ft 4 kts 282°
2026-04-22 03:45 -33.93572 151.17824 30 ft 4 kts 234°
2026-04-22 03:45 -33.93574 151.17828 30 ft 4 kts 190°
2026-04-22 03:45 -33.93601 151.17822 30 ft 4 kts 190°
2026-04-22 03:45 -33.93611 151.17820 30 ft 0 kts 191°
2026-04-22 03:48 -33.93617 151.17819 30 ft 3 kts 191°
2026-04-22 03:48 -33.93650 151.17810 30 ft 7 kts 194°
2026-04-22 03:48 -33.93714 151.17791 30 ft 12 kts 194°
2026-04-22 03:49 -33.93806 151.17763 30 ft 16 kts 190°
2026-04-22 03:49 -33.93928 151.17785 29 ft 20 kts 167°
2026-04-22 03:49 -33.94077 151.17823 29 ft 24 kts 167°
2026-04-22 03:49 -33.94246 151.17868 30 ft 26 kts 168°
2026-04-22 03:50 -33.94415 151.17910 30 ft 18 kts 170°
2026-04-22 03:50 -33.94492 151.17884 30 ft 11 kts 202°
2026-04-22 03:50 -33.94578 151.17895 30 ft 14 kts 165°
2026-04-22 03:50 -33.94682 151.17924 30 ft 16 kts 168°
2026-04-22 03:51 -33.94800 151.17953 30 ft 19 kts 168°
2026-04-22 03:51 -33.94933 151.17987 30 ft 20 kts 167°
2026-04-22 03:51 -33.95067 151.18025 30 ft 15 kts 154°
2026-04-22 03:51 -33.95099 151.18090 30 ft 11 kts 96°
2026-04-22 03:52 -33.95082 151.18205 30 ft 16 kts 77°
2026-04-22 03:52 -33.95056 151.18349 30 ft 19 kts 78°
2026-04-22 03:52 -33.95026 151.18518 30 ft 22 kts 77°
2026-04-22 03:52 -33.95008 151.18618 30 ft 8 kts 78°
2026-04-22 03:53 -33.94993 151.18702 29 ft 12 kts 78°
2026-04-22 03:53 -33.95001 151.18825 28 ft 15 kts 136°
2026-04-22 03:53 -33.95118 151.18868 25 ft 22 kts 168°
2026-04-22 03:53 -33.95451 151.18955 27 ft 83 kts 168°
2026-04-22 03:54 -33.96203 151.19149 30 ft 136 kts 168°
2026-04-22 03:54 -33.97195 151.19400 481 ft 147 kts 165°
2026-04-22 03:54 -33.98177 151.19788 1142 ft 151 kts 151°
2026-04-22 03:54 -33.98945 151.20674 1797 ft 161 kts 126°
2026-04-22 03:55 -33.99465 151.21972 2147 ft 185 kts 117°
2026-04-22 03:55 -34.00076 151.23464 2439 ft 212 kts 125°
2026-04-22 03:55 -34.00971 151.24890 3204 ft 219 kts 136°
2026-04-22 03:55 -34.02154 151.26106 3968 ft 229 kts 144°
2026-04-22 03:56 -34.03472 151.27310 4653 ft 245 kts 143°
2026-04-22 03:56 -34.04846 151.28590 5514 ft 253 kts 144°
2026-04-22 03:56 -34.06240 151.29908 6510 ft 256 kts 142°
2026-04-22 03:56 -34.07658 151.31268 7377 ft 263 kts 142°
2026-04-22 03:57 -34.09087 151.32655 8307 ft 267 kts 141°
2026-04-22 03:57 -34.10537 151.34088 9183 ft 271 kts 138°
2026-04-22 03:57 -34.11619 151.35957 10091 ft 278 kts 111°
2026-04-22 03:57 -34.11847 151.38246 10909 ft 285 kts 85°
2026-04-22 03:58 -34.11117 151.40546 11418 ft 308 kts 57°
2026-04-22 03:58 -34.09690 151.42541 12120 ft 317 kts 51°
2026-04-22 03:58 -34.08189 151.44511 12893 ft 322 kts 50°
2026-04-22 03:58 -34.06458 151.46273 13643 ft 332 kts 36°
2026-04-22 03:59 -34.04352 151.47563 14104 ft 352 kts 23°
2026-04-22 03:59 -34.01926 151.48407 14364 ft 371 kts 18°
2026-04-22 03:59 -33.99405 151.49221 14889 ft 378 kts 18°
2026-04-22 03:59 -33.96880 151.50041 15493 ft 383 kts 18°
2026-04-22 04:00 -33.94292 151.50885 16095 ft 388 kts 18°
2026-04-22 04:00 -33.91668 151.51741 16698 ft 393 kts 18°
2026-04-22 04:00 -33.89015 151.52606 17283 ft 398 kts 18°
2026-04-22 04:00 -33.86322 151.53486 17868 ft 403 kts 18°
2026-04-22 04:01 -33.83601 151.54381 18465 ft 408 kts 18°
2026-04-22 04:01 -33.80842 151.55284 18998 ft 413 kts 18°
2026-04-22 04:01 -33.78058 151.56195 19520 ft 418 kts 18°
2026-04-22 04:01 -33.75276 151.57102 20040 ft 423 kts 17°
2026-04-22 04:02 -33.72418 151.58030 20568 ft 427 kts 17°
2026-04-22 04:02 -33.69531 151.58966 21073 ft 432 kts 17°
2026-04-22 04:02 -33.66624 151.59948 21570 ft 436 kts 21°
2026-04-22 04:02 -33.63832 151.61374 22046 ft 437 kts 31°
2026-04-22 04:03 -33.61239 151.63286 22528 ft 439 kts 37°
2026-04-22 04:03 -33.58676 151.65314 22980 ft 444 kts 36°
2026-04-22 04:03 -33.56079 151.67363 23437 ft 449 kts 36°
2026-04-22 04:03 -33.53493 151.69399 23853 ft 454 kts 36°
2026-04-22 04:04 -33.50795 151.71418 24223 ft 460 kts 30°
2026-04-22 04:04 -33.47863 151.73000 24623 ft 465 kts 20°
2026-04-22 04:04 -33.44746 151.74098 25029 ft 469 kts 15°
2026-04-22 04:04 -33.41589 151.75110 25452 ft 471 kts 15°
2026-04-22 04:05 -33.38418 151.76126 25867 ft 474 kts 15°
2026-04-22 04:05 -33.35226 151.77152 26278 ft 476 kts 15°
2026-04-22 04:05 -33.32018 151.78190 26668 ft 479 kts 15°
2026-04-22 04:05 -33.28796 151.79234 27071 ft 481 kts 15°
2026-04-22 04:06 -33.25594 151.80269 27461 ft 484 kts 15°
2026-04-22 04:06 -33.22338 151.81320 27876 ft 486 kts 14°
2026-04-22 04:06 -33.19060 151.82373 28283 ft 489 kts 14°
2026-04-22 04:06 -33.15766 151.83430 28687 ft 492 kts 14°
2026-04-22 04:07 -33.12453 151.84493 29093 ft 494 kts 14°
2026-04-22 04:07 -33.09126 151.85565 29479 ft 497 kts 14°
2026-04-22 04:07 -33.05782 151.86642 29874 ft 499 kts 14°
2026-04-22 04:07 -33.02421 151.87724 30262 ft 501 kts 14°
2026-04-22 04:08 -32.99043 151.88813 30598 ft 504 kts 14°
2026-04-22 04:08 -32.95701 151.89888 30918 ft 506 kts 14°
2026-04-22 04:08 -32.92296 151.90982 31308 ft 507 kts 13°
2026-04-22 04:08 -32.88888 151.92071 31766 ft 506 kts 13°
2026-04-22 04:09 -32.85492 151.93153 32246 ft 505 kts 13°
2026-04-22 04:09 -32.82097 151.94231 32729 ft 505 kts 13°
2026-04-22 04:09 -32.78704 151.95309 33201 ft 505 kts 12°
2026-04-22 04:09 -32.75310 151.96388 33683 ft 504 kts 12°
2026-04-22 04:10 -32.71932 151.97465 34175 ft 503 kts 12°
2026-04-22 04:10 -32.68599 151.98528 34606 ft 502 kts 12°
2026-04-22 04:10 -32.65228 151.99603 35009 ft 502 kts 12°
2026-04-22 04:10 -32.61863 152.00681 35387 ft 501 kts 12°
2026-04-22 04:11 -32.58493 152.01759 35752 ft 501 kts 12°
2026-04-22 04:11 -32.55126 152.02830 36108 ft 501 kts 12°
2026-04-22 04:11 -32.51759 152.03897 36460 ft 501 kts 12°
2026-04-22 04:11 -32.48388 152.04961 36817 ft 501 kts 11°
2026-04-22 04:12 -32.45020 152.06025 37141 ft 501 kts 11°
2026-04-22 04:12 -32.41689 152.07078 37280 ft 502 kts 11°
2026-04-22 04:12 -32.34938 152.09212 37298 ft 502 kts 11°
2026-04-22 04:13 -32.28192 152.11337 37295 ft 502 kts 11°
2026-04-22 04:13 -32.21447 152.13453 37286 ft 502 kts 10°
2026-04-22 04:14 -32.14737 152.15564 37299 ft 502 kts 11°
2026-04-22 04:14 -32.07988 152.17687 37295 ft 502 kts 11°
2026-04-22 04:15 -32.01227 152.19804 37289 ft 502 kts 10°
2026-04-22 04:15 -31.94467 152.21920 37292 ft 503 kts 10°
2026-04-22 04:16 -31.84370 152.25088 37291 ft 503 kts 10°
2026-04-22 04:17 -31.77605 152.27206 37266 ft 503 kts 10°
2026-04-22 04:17 -31.70846 152.29310 37266 ft 503 kts 10°
2026-04-22 04:18 -31.64071 152.31413 37275 ft 504 kts 10°
2026-04-22 04:18 -31.57340 152.33501 37287 ft 504 kts 10°
2026-04-22 04:19 -31.50558 152.35602 37281 ft 504 kts 10°
2026-04-22 04:19 -31.43786 152.37700 37288 ft 504 kts
2026-04-22 04:20 -31.37016 152.39792 37286 ft 503 kts 10°
2026-04-22 04:20 -31.30294 152.41873 37265 ft 503 kts
2026-04-22 04:21 -31.23521 152.43959 37274 ft 503 kts
2026-04-22 04:21 -31.16755 152.46041 37268 ft 503 kts
2026-04-22 04:22 -31.09982 152.48124 37269 ft 503 kts 10°
2026-04-22 04:22 -31.03264 152.50197 37257 ft 503 kts
2026-04-22 04:23 -30.96492 152.52270 37260 ft 503 kts
2026-04-22 04:23 -30.89711 152.54341 37271 ft 504 kts
2026-04-22 04:24 -30.82924 152.56415 37257 ft 505 kts
2026-04-22 04:24 -30.76185 152.58554 37261 ft 506 kts 12°
2026-04-22 04:25 -30.69458 152.61018 37266 ft 507 kts 13°
2026-04-22 04:25 -30.62749 152.63576 37270 ft 507 kts 13°
2026-04-22 04:26 -30.56024 152.66051 37259 ft 506 kts 12°
2026-04-22 04:26 -30.49343 152.68431 37266 ft 505 kts 12°
2026-04-22 04:27 -30.42635 152.70827 37260 ft 505 kts 12°
2026-04-22 04:27 -30.35938 152.73251 37260 ft 505 kts 12°
2026-04-22 04:28 -30.29230 152.75683 37253 ft 505 kts 12°
2026-04-22 04:28 -30.22578 152.78079 37249 ft 504 kts 12°
2026-04-22 04:29 -30.15874 152.80480 37227 ft 504 kts 12°
2026-04-22 04:29 -30.09179 152.82871 37257 ft 504 kts 12°
2026-04-22 04:30 -30.02479 152.85264 37243 ft 504 kts 12°
2026-04-22 04:30 -29.95822 152.87649 37234 ft 505 kts 12°
2026-04-22 04:31 -29.89113 152.90040 37228 ft 505 kts 12°
2026-04-22 04:31 -29.82407 152.92431 37225 ft 505 kts 12°
2026-04-22 04:32 -29.75697 152.94817 37225 ft 505 kts 12°
2026-04-22 04:32 -29.69027 152.97178 37227 ft 505 kts 11°
2026-04-22 04:33 -29.62329 152.99559 37206 ft 504 kts 11°
2026-04-22 04:33 -29.55627 153.01941 37215 ft 504 kts 11°
2026-04-22 04:34 -29.48934 153.04309 37219 ft 503 kts 11°
2026-04-22 04:34 -29.42282 153.06659 37204 ft 503 kts 11°
2026-04-22 04:35 -29.35589 153.09016 37215 ft 503 kts 11°
2026-04-22 04:35 -29.28900 153.11374 37218 ft 503 kts 11°
2026-04-22 04:36 -29.22207 153.13737 37247 ft 503 kts 11°
2026-04-22 04:36 -29.15510 153.16088 37215 ft 503 kts 11°
2026-04-22 04:37 -29.08855 153.18424 37222 ft 504 kts 11°
2026-04-22 04:37 -29.02148 153.20782 37226 ft 504 kts 11°
2026-04-22 04:38 -28.95442 153.23134 37200 ft 504 kts 11°
2026-04-22 04:38 -28.88785 153.25464 37224 ft 503 kts 11°
2026-04-22 04:39 -28.82089 153.27803 37230 ft 503 kts 11°
2026-04-22 04:39 -28.75396 153.30140 37233 ft 503 kts 11°
2026-04-22 04:40 -28.68699 153.32474 37217 ft 503 kts 11°
2026-04-22 04:40 -28.62001 153.34796 37229 ft 503 kts 11°
2026-04-22 04:41 -28.55354 153.37099 37232 ft 503 kts 11°
2026-04-22 04:41 -28.48671 153.39418 37228 ft 502 kts 11°
2026-04-22 04:42 -28.41986 153.41744 37212 ft 502 kts 11°
2026-04-22 04:42 -28.35302 153.44062 37236 ft 502 kts 11°
2026-04-22 04:43 -28.28664 153.46343 37218 ft 502 kts 11°
2026-04-22 04:43 -28.21974 153.48652 37187 ft 503 kts 11°
2026-04-22 04:44 -28.15217 153.50274 37203 ft 489 kts 356°
2026-04-22 04:44 -28.08481 153.50310 37215 ft 483 kts 352°
2026-04-22 04:45 -28.01747 153.50243 37214 ft 484 kts 352°
2026-04-22 04:45 -27.98378 153.50211 36980 ft 486 kts 352°
2026-04-22 04:45 -27.95027 153.50175 36271 ft 489 kts 352°
2026-04-22 04:45 -27.91622 153.50133 35588 ft 490 kts 352°
2026-04-22 04:46 -27.88205 153.50091 34913 ft 491 kts 352°
2026-04-22 04:46 -27.84783 153.50050 34257 ft 492 kts 352°
2026-04-22 04:46 -27.81357 153.50015 33523 ft 493 kts 352°
2026-04-22 04:46 -27.77930 153.49985 32797 ft 493 kts 353°
2026-04-22 04:47 -27.74497 153.49953 32084 ft 493 kts 353°
2026-04-22 04:47 -27.71117 153.49919 31411 ft 493 kts 353°
2026-04-22 04:47 -27.67691 153.49884 30718 ft 491 kts 353°
2026-04-22 04:47 -27.64280 153.49849 30018 ft 489 kts 353°
2026-04-22 04:48 -27.60891 153.49811 29251 ft 486 kts 353°
2026-04-22 04:48 -27.57514 153.49772 28498 ft 483 kts 354°
2026-04-22 04:48 -27.54159 153.49737 27711 ft 481 kts 354°
2026-04-22 04:48 -27.50825 153.49705 26991 ft 478 kts 354°
2026-04-22 04:49 -27.47515 153.49676 26315 ft 474 kts 355°
2026-04-22 04:49 -27.44232 153.49651 25680 ft 469 kts 355°
2026-04-22 04:49 -27.41066 153.49628 25025 ft 452 kts 355°
2026-04-22 04:49 -27.37964 153.49606 24406 ft 441 kts 355°
2026-04-22 04:50 -27.34896 153.49575 23805 ft 440 kts 355°
2026-04-22 04:50 -27.31842 153.49540 23137 ft 438 kts 355°
2026-04-22 04:50 -27.28807 153.49509 22478 ft 435 kts 355°
2026-04-22 04:50 -27.25789 153.49480 21830 ft 432 kts 356°
2026-04-22 04:51 -27.22792 153.49452 21206 ft 430 kts 356°
2026-04-22 04:51 -27.19809 153.49424 20600 ft 427 kts 356°
2026-04-22 04:51 -27.16841 153.49396 20001 ft 425 kts 356°
2026-04-22 04:51 -27.13929 153.49368 19410 ft 423 kts 356°
2026-04-22 04:52 -27.10990 153.49338 18825 ft 421 kts 356°
2026-04-22 04:52 -27.08075 153.49310 18210 ft 418 kts 356°
2026-04-22 04:52 -27.05173 153.49284 17557 ft 415 kts 357°
2026-04-22 04:52 -27.02292 153.49260 16918 ft 413 kts 357°
2026-04-22 04:53 -26.99434 153.49235 16289 ft 409 kts 357°
2026-04-22 04:53 -26.96598 153.49210 15674 ft 406 kts 357°
2026-04-22 04:53 -26.93786 153.49185 15066 ft 402 kts 358°
2026-04-22 04:53 -26.91047 153.49163 14483 ft 398 kts 358°
2026-04-22 04:54 -26.88288 153.49140 13887 ft 394 kts 358°
2026-04-22 04:54 -26.85612 153.49117 13225 ft 376 kts 358°
2026-04-22 04:54 -26.83035 153.49095 12579 ft 366 kts 358°
2026-04-22 04:54 -26.80518 153.49071 11949 ft 360 kts 358°
2026-04-22 04:55 -26.78023 153.49041 11333 ft 356 kts 358°
2026-04-22 04:55 -26.75573 153.48908 10844 ft 351 kts 350°
2026-04-22 04:55 -26.73219 153.48294 10555 ft 346 kts 340°
2026-04-22 04:55 -26.71060 153.47232 10319 ft 342 kts 328°
2026-04-22 04:56 -26.69052 153.45838 10081 ft 339 kts 325°
2026-04-22 04:56 -26.67073 153.44441 9872 ft 327 kts 326°
2026-04-22 04:56 -26.65224 153.43146 9755 ft 303 kts 326°
2026-04-22 04:56 -26.63474 153.41917 9628 ft 295 kts 325°
2026-04-22 04:57 -26.61741 153.40695 9491 ft 294 kts 326°
2026-04-22 04:57 -26.60007 153.39473 9372 ft 293 kts 326°
2026-04-22 04:57 -26.58276 153.38254 9016 ft 298 kts 327°
2026-04-22 04:57 -26.56530 153.37024 8580 ft 293 kts 326°
2026-04-22 04:58 -26.54813 153.35815 8147 ft 291 kts 325°
2026-04-22 04:58 -26.53120 153.34621 7727 ft 292 kts 325°
2026-04-22 04:58 -26.51398 153.33407 7323 ft 292 kts 326°
2026-04-22 04:58 -26.49689 153.32200 6911 ft 289 kts 325°
2026-04-22 04:59 -26.47983 153.30997 6498 ft 292 kts 325°
2026-04-22 04:59 -26.46269 153.29764 6052 ft 293 kts 321°
2026-04-22 04:59 -26.44771 153.28230 5636 ft 294 kts 311°
2026-04-22 04:59 -26.43370 153.26593 5398 ft 288 kts 311°
2026-04-22 05:00 -26.41988 153.24986 5287 ft 286 kts 311°
2026-04-22 05:00 -26.40628 153.23411 5166 ft 286 kts 311°
2026-04-22 05:00 -26.39252 153.21817 5036 ft 285 kts 311°
2026-04-22 05:00 -26.37881 153.20230 4916 ft 285 kts 311°
2026-04-22 05:01 -26.36553 153.18592 4792 ft 284 kts 304°
2026-04-22 05:01 -26.35590 153.16699 4662 ft 279 kts 288°
2026-04-22 05:01 -26.35085 153.14638 4539 ft 275 kts 275°
2026-04-22 05:01 -26.34836 153.12522 4407 ft 275 kts 275°
2026-04-22 05:02 -26.34582 153.10424 4282 ft 272 kts 275°
2026-04-22 05:02 -26.34325 153.08339 4155 ft 271 kts 274°
2026-04-22 05:02 -26.34285 153.06265 4038 ft 263 kts 258°
2026-04-22 05:02 -26.34731 153.04404 4041 ft 244 kts 243°
2026-04-22 05:03 -26.35560 153.02816 3916 ft 231 kts 229°
2026-04-22 05:03 -26.36496 153.01403 3795 ft 223 kts 229°
2026-04-22 05:03 -26.37481 153.00134 3668 ft 210 kts 215°
2026-04-22 05:03 -26.38673 152.99308 3539 ft 196 kts 200°
2026-04-22 05:04 -26.39895 152.98705 3418 ft 188 kts 201°
2026-04-22 05:04 -26.41074 152.98117 3295 ft 184 kts 200°
2026-04-22 05:04 -26.42242 152.97531 3177 ft 184 kts 200°
2026-04-22 05:04 -26.43397 152.96951 3252 ft 183 kts 200°
2026-04-22 05:05 -26.44519 152.96538 3256 ft 159 kts 183°
2026-04-22 05:05 -26.45538 152.96663 3195 ft 145 kts 160°
2026-04-22 05:05 -26.46393 152.97219 2979 ft 140 kts 141°
2026-04-22 05:05 -26.47145 152.97872 2814 ft 133 kts 143°
2026-04-22 05:06 -26.47868 152.98491 2619 ft 130 kts 143°
2026-04-22 05:06 -26.48580 152.99098 2432 ft 128 kts 143°
2026-04-22 05:06 -26.49286 152.99702 2258 ft 127 kts 142°
2026-04-22 05:06 -26.49978 153.00296 2088 ft 127 kts 141°
2026-04-22 05:07 -26.50688 153.00906 1898 ft 129 kts 142°
2026-04-22 05:07 -26.51397 153.01514 1726 ft 127 kts 142°
2026-04-22 05:07 -26.52093 153.02111 1562 ft 126 kts 142°
2026-04-22 05:07 -26.52795 153.02709 1390 ft 128 kts 143°
2026-04-22 05:08 -26.53505 153.03314 1242 ft 128 kts 141°
2026-04-22 05:08 -26.54208 153.03916 1069 ft 126 kts 141°
2026-04-22 05:08 -26.54904 153.04514 887 ft 128 kts 144°
2026-04-22 05:08 -26.55603 153.05113 730 ft 127 kts 143°
2026-04-22 05:09 -26.56287 153.05701 564 ft 125 kts 143°
2026-04-22 05:09 -26.56967 153.06291 372 ft 124 kts 141°
2026-04-22 05:09 -26.57654 153.06901 232 ft 127 kts 142°
2026-04-22 05:09 -26.58355 153.07500 88 ft 127 kts 144°
2026-04-22 05:10 -26.59018 153.08061 23 ft 99 kts 143°
2026-04-22 05:10 -26.59449 153.08424 21 ft 61 kts 143°
2026-04-22 05:10 -26.59657 153.08601 23 ft 53 kts 143°
2026-04-22 05:10 -26.60020 153.08902 22 ft 35 kts 143°
2026-04-22 05:11 -26.60084 153.08919 22 ft 12 kts 212°
2026-04-22 05:11 -26.60171 153.08821 22 ft 10 kts 194°
2026-04-22 05:11 -26.60235 153.08859 21 ft 12 kts 141°
2026-04-22 05:11 -26.60312 153.08928 23 ft 16 kts 142°
2026-04-22 05:12 -26.60409 153.09012 22 ft 19 kts 142°
2026-04-22 05:12 -26.60479 153.09068 22 ft 17 kts 151°
2026-04-22 05:12 -26.60555 153.09066 22 ft 3 kts 196°
2026-04-22 05:12 -26.60564 153.09063 22 ft 3 kts 196°
2026-04-22 05:13 -26.60581 153.09040 22 ft 5 kts 261°
2026-04-22 05:13 -26.60578 153.09000 22 ft 4 kts 288°
2026-04-22 05:13 -26.60570 153.08972 23 ft 4 kts 285°
2026-04-22 05:13 -26.60566 153.08955 22 ft 0 kts 284°
2026-04-22 05:14 -26.60566 153.08953 21 ft 0 kts 284°